Voltar ao catálogo

NOAA 17 DEB

AtivoPO
NORAD 48718·DEBRIS·🇺🇸 United States

Lançado Jun 24, 2002 de Vandenberg Space Force Base

Loading…

Próximas Passagens (próximas 24 horas)

TLE

AtualizadoSource: Space-Track

Época: Sep 14, 2026, 11:05 UTC

1 48718U 02032BB  26257.46187489  .00006380  00000-0  11997-2 0  9990
2 48718  98.9565 333.7555 0015153 230.8934 129.0920 14.64954053289268

Acompanhe NOAA 17 DEB em tempo real com AllMySat

Download on the App Store